Time,TemperatureF,DewpointF,PressureIn,WindDirection,WindDirectionDegrees,WindSpeedMPH,WindSpeedGustMPH,Humidity,HourlyPrecipIn,Conditions,Clouds,dailyrainin,SoftwareType,DateUTC
2013-03-03 00:01:00,37.0,20.0,-100.00,SSW,199,22.0,26.0,49,0.00,,,-99.99,,2013-03-03 07:01:00,
2013-03-03 00:11:00,37.0,20.0,-100.00,SSW,203,22.0,27.0,50,0.00,,,-99.99,,2013-03-03 07:11:00,
2013-03-03 00:21:00,37.0,20.0,-100.00,SSW,203,21.0,26.0,50,0.00,,,-99.99,,2013-03-03 07:21:00,
2013-03-03 00:31:00,37.0,20.0,-100.00,SSW,205,22.0,27.0,48,0.00,,,-99.99,,2013-03-03 07:31:00,
2013-03-03 00:42:00,38.0,19.0,-100.00,SSW,206,22.0,26.0,46,0.00,,,-99.99,,2013-03-03 07:42:00,
2013-03-03 00:51:00,39.0,19.0,-100.00,SSW,203,22.0,29.0,44,0.00,,,-99.99,,2013-03-03 07:51:00,
2013-03-03 01:01:00,39.0,18.0,-100.00,SSW,196,20.0,24.0,43,0.00,,,-99.99,,2013-03-03 08:01:00,
2013-03-03 01:11:00,39.0,18.0,-100.00,SSW,195,19.0,24.0,44,0.00,,,-99.99,,2013-03-03 08:11:00,
2013-03-03 01:21:00,39.0,18.0,-100.00,SSW,199,17.0,21.0,43,0.00,,,-99.99,,2013-03-03 08:21:00,
2013-03-03 01:31:00,39.0,18.0,-100.00,SSW,209,17.0,23.0,42,0.00,,,-99.99,,2013-03-03 08:31:00,
2013-03-03 01:41:00,41.0,16.0,-100.00,SSW,210,18.0,27.0,35,0.00,,,-99.99,,2013-03-03 08:41:00,
2013-03-03 01:53:00,42.0,16.0,-100.00,SW,215,12.0,20.0,34,0.00,,,-99.99,,2013-03-03 08:53:00,
2013-03-03 02:01:00,41.0,17.0,-100.00,SW,223,9.0,18.0,37,0.00,,,-99.99,,2013-03-03 09:01:00,
2013-03-03 02:11:00,41.0,18.0,-100.00,SW,220,13.0,21.0,39,0.00,,,-99.99,,2013-03-03 09:11:00,
2013-03-03 02:21:00,40.0,17.0,-100.00,SW,220,16.0,27.0,37,0.00,,,-99.99,,2013-03-03 09:21:00,
2013-03-03 02:32:00,42.0,16.0,-100.00,WSW,248,10.0,17.0,34,0.00,,,-99.99,,2013-03-03 09:32:00,
2013-03-03 02:41:00,40.0,17.0,-100.00,WSW,244,4.0,7.0,38,0.00,,,-99.99,,2013-03-03 09:41:00,
2013-03-03 02:51:00,40.0,18.0,-100.00,SSW,205,12.0,20.0,42,0.00,,,-99.99,,2013-03-03 09:51:00,
2013-03-03 03:01:00,40.0,17.0,-100.00,South,191,16.0,23.0,40,0.00,,,-99.99,,2013-03-03 10:01:00,
2013-03-03 03:11:00,40.0,18.0,-100.00,South,191,16.0,23.0,40,0.00,,,-99.99,,2013-03-03 10:11:00,
2013-03-03 03:21:00,40.0,18.0,-100.00,South,191,16.0,21.0,41,0.00,,,-99.99,,2013-03-03 10:21:00,
2013-03-03 03:32:00,40.0,18.0,-100.00,South,189,19.0,26.0,41,0.00,,,-99.99,,2013-03-03 10:32:00,
2013-03-03 03:42:00,40.0,19.0,-100.00,South,186,15.0,20.0,43,0.00,,,-99.99,,2013-03-03 10:42:00,
2013-03-03 03:52:00,40.0,19.0,-100.00,South,182,14.0,22.0,43,0.00,,,-99.99,,2013-03-03 10:52:00,
2013-03-03 04:01:00,39.0,18.0,-100.00,South,188,17.0,22.0,42,0.00,,,-99.99,,2013-03-03 11:01:00,
2013-03-03 04:11:00,39.0,18.0,-100.00,SSW,200,14.0,22.0,42,0.00,,,-99.99,,2013-03-03 11:11:00,
2013-03-03 04:21:00,39.0,18.0,-100.00,SW,216,12.0,20.0,42,0.00,,,-99.99,,2013-03-03 11:21:00,
2013-03-03 04:32:00,40.0,16.0,-100.00,WSW,247,10.0,18.0,36,0.00,,,-99.99,,2013-03-03 11:32:00,
2013-03-03 04:42:00,41.0,16.0,-100.00,South,179,8.0,31.0,35,0.00,,,-99.99,,2013-03-03 11:42:00,
2013-03-03 04:52:00,41.0,16.0,-100.00,South,184,10.0,19.0,37,0.00,,,-99.99,,2013-03-03 11:52:00,
2013-03-03 05:01:00,41.0,17.0,-100.00,South,186,14.0,24.0,37,0.00,,,-99.99,,2013-03-03 12:01:00,
2013-03-03 05:11:00,40.0,17.0,-100.00,South,181,15.0,24.0,38,0.00,,,-99.99,,2013-03-03 12:11:00,
2013-03-03 05:21:00,39.0,18.0,-100.00,South,185,12.0,21.0,43,0.00,,,-99.99,,2013-03-03 12:21:00,
2013-03-03 05:32:00,39.0,18.0,-100.00,SSE,168,18.0,29.0,42,0.00,,,-99.99,,2013-03-03 12:32:00,
2013-03-03 05:42:00,39.0,19.0,-100.00,SSE,165,18.0,30.0,45,0.00,,,-99.99,,2013-03-03 12:42:00,
2013-03-03 05:52:00,40.0,18.0,-100.00,SSE,160,19.0,28.0,42,0.00,,,-99.99,,2013-03-03 12:52:00,
2013-03-03 06:01:00,40.0,16.0,-100.00,SSE,150,19.0,35.0,37,0.00,,,-99.99,,2013-03-03 13:01:00,
2013-03-03 06:11:00,42.0,16.0,-100.00,SSE,160,16.0,35.0,36,0.00,,,-99.99,,2013-03-03 13:11:00,
2013-03-03 06:21:00,39.0,19.0,-100.00,ESE,103,20.0,27.0,43,0.00,,,-99.99,,2013-03-03 13:21:00,
2013-03-03 06:32:00,38.0,19.0,-100.00,ESE,103,14.0,18.0,46,0.00,,,-99.99,,2013-03-03 13:32:00,
2013-03-03 06:42:00,38.0,18.0,-100.00,ESE,103,13.0,17.0,42,0.00,,,-99.99,,2013-03-03 13:42:00,
2013-03-03 06:51:00,40.0,19.0,-100.00,ESE,103,19.0,30.0,42,0.00,,,-99.99,,2013-03-03 13:51:00,
2013-03-03 07:02:00,39.0,18.0,-100.00,ESE,103,13.0,25.0,43,0.00,,,-99.99,,2013-03-03 14:02:00,
2013-03-03 07:11:00,40.0,19.0,-100.00,ESE,103,18.0,28.0,41,0.00,,,-99.99,,2013-03-03 14:11:00,
2013-03-03 07:21:00,40.0,18.0,-100.00,ESE,103,15.0,30.0,40,0.00,,,-99.99,,2013-03-03 14:21:00,
2013-03-03 07:32:00,40.0,19.0,-100.00,ESE,103,18.0,38.0,42,0.00,,,-99.99,,2013-03-03 14:32:00,
2013-03-03 07:42:00,40.0,20.0,-100.00,ESE,103,14.0,24.0,44,0.00,,,-99.99,,2013-03-03 14:42:00,
2013-03-03 07:52:00,40.0,20.0,-100.00,ESE,103,14.0,24.0,44,0.00,,,-99.99,,2013-03-03 14:52:00,
2013-03-03 08:01:00,41.0,19.0,-100.00,ESE,109,17.0,39.0,42,0.00,,,-99.99,,2013-03-03 15:01:00,
2013-03-03 08:11:00,40.0,20.0,-100.00,SSW,212,11.0,22.0,44,0.00,,,-99.99,,2013-03-03 15:11:00,
2013-03-03 08:22:00,41.0,20.0,-100.00,SW,227,8.0,18.0,44,0.00,,,-99.99,,2013-03-03 15:22:00,
2013-03-03 08:32:00,40.0,21.0,-100.00,SW,229,7.0,14.0,45,0.00,,,-99.99,,2013-03-03 15:32:00,
2013-03-03 08:42:00,40.0,21.0,-100.00,WSW,254,6.0,13.0,45,0.00,,,-99.99,,2013-03-03 15:42:00,
2013-03-03 08:51:00,40.0,22.0,-100.00,West,271,11.0,23.0,49,0.00,,,-99.99,,2013-03-03 15:51:00,
2013-03-03 09:01:00,40.0,22.0,-100.00,West,277,11.0,22.0,48,0.00,,,-99.99,,2013-03-03 16:01:00,
2013-03-03 09:12:00,40.0,22.0,-100.00,WNW,287,12.0,27.0,48,0.00,,,-99.99,,2013-03-03 16:12:00,
2013-03-03 09:21:00,42.0,23.0,-100.00,WSW,257,8.0,20.0,46,0.00,,,-99.99,,2013-03-03 16:21:00,
2013-03-03 09:32:00,41.0,25.0,-100.00,WSW,258,10.0,19.0,52,0.00,,,-99.99,,2013-03-03 16:32:00,
2013-03-03 09:42:00,40.0,24.0,-100.00,WNW,282,9.0,16.0,52,0.00,,,-99.99,,2013-03-03 16:42:00,
2013-03-03 09:52:00,41.0,24.0,-100.00,West,267,7.0,16.0,50,0.00,,,-99.99,,2013-03-03 16:52:00,
2013-03-03 10:01:00,42.0,23.0,-100.00,WNW,296,4.0,16.0,48,0.00,,,-99.99,,2013-03-03 17:01:00,
2013-03-03 10:11:00,41.0,24.0,-100.00,SW,224,7.0,19.0,51,0.00,,,-99.99,,2013-03-03 17:11:00,
2013-03-03 10:22:00,40.0,26.0,-100.00,WSW,237,10.0,18.0,55,0.00,,,-99.99,,2013-03-03 17:22:00,
2013-03-03 10:32:00,41.0,26.0,-100.00,WSW,241,9.0,17.0,53,0.00,,,-99.99,,2013-03-03 17:32:00,
2013-03-03 10:42:00,42.0,24.0,-100.00,WSW,254,10.0,21.0,50,0.00,,,-99.99,,2013-03-03 17:42:00,
2013-03-03 10:52:00,40.0,26.0,-100.00,WSW,244,14.0,21.0,57,0.00,,,-99.99,,2013-03-03 17:52:00,
2013-03-03 11:01:00,40.0,27.0,-100.00,SW,229,9.0,17.0,59,0.00,,,-99.99,,2013-03-03 18:01:00,
2013-03-03 11:11:00,40.0,27.0,-100.00,WSW,237,6.0,12.0,59,0.00,,,-99.99,,2013-03-03 18:11:00,
2013-03-03 11:21:00,42.0,26.0,-100.00,SSE,150,9.0,17.0,54,0.00,,,-99.99,,2013-03-03 18:21:00,
2013-03-03 11:32:00,42.0,26.0,-100.00,North,0,13.0,26.0,52,0.00,,,-99.99,,2013-03-03 18:32:00,
2013-03-03 11:42:00,42.0,26.0,-100.00,SW,230,13.0,24.0,52,0.00,,,-99.99,,2013-03-03 18:42:00,
2013-03-03 11:52:00,42.0,26.0,-100.00,SW,226,20.0,32.0,53,0.00,,,-99.99,,2013-03-03 18:52:00,
2013-03-03 12:01:00,44.0,26.0,-100.00,SW,234,19.0,31.0,50,0.00,,,-99.99,,2013-03-03 19:01:00,
2013-03-03 12:11:00,43.0,26.0,-100.00,WSW,237,18.0,24.0,51,0.00,,,-99.99,,2013-03-03 19:11:00,
2013-03-03 12:21:00,41.0,26.0,-100.00,WSW,243,22.0,34.0,55,0.00,,,-99.99,,2013-03-03 19:21:00,
2013-03-03 12:32:00,42.0,26.0,-100.00,WSW,243,11.0,22.0,53,0.00,,,-99.99,,2013-03-03 19:32:00,
2013-03-03 12:42:00,42.0,25.0,-100.00,SW,224,9.0,16.0,50,0.00,,,-99.99,,2013-03-03 19:42:00,
2013-03-03 12:51:00,42.0,26.0,-100.00,WSW,256,7.0,18.0,52,0.00,,,-99.99,,2013-03-03 19:51:00,
2013-03-03 13:01:00,42.0,26.0,-100.00,West,272,9.0,15.0,54,0.00,,,-99.99,,2013-03-03 20:01:00,
2013-03-03 13:11:00,42.0,25.0,-100.00,West,278,11.0,18.0,52,0.00,,,-99.99,,2013-03-03 20:11:00,
2013-03-03 13:21:00,41.0,25.0,-100.00,WSW,254,8.0,16.0,52,0.00,,,-99.99,,2013-03-03 20:21:00,
2013-03-03 13:32:00,42.0,25.0,-100.00,West,263,4.0,9.0,51,0.00,,,-99.99,,2013-03-03 20:32:00,
2013-03-03 13:42:00,41.0,26.0,-100.00,NW,323,6.0,8.0,55,0.00,,,-99.99,,2013-03-03 20:42:00,
2013-03-03 13:52:00,41.0,26.0,-100.00,NNW,339,4.0,7.0,55,0.00,,,-99.99,,2013-03-03 20:52:00,
2013-03-03 14:02:00,41.0,26.0,-100.00,NE,35,2.0,7.0,54,0.00,,,-99.99,,2013-03-03 21:02:00,
2013-03-03 14:11:00,41.0,26.0,-100.00,East,97,5.0,11.0,54,0.00,,,-99.99,,2013-03-03 21:11:00,
2013-03-03 14:21:00,42.0,27.0,-100.00,East,99,6.0,16.0,53,0.00,,,-99.99,,2013-03-03 21:21:00,
2013-03-03 14:32:00,41.0,25.0,-100.00,East,99,11.0,21.0,53,0.00,,,-99.99,,2013-03-03 21:32:00,
2013-03-03 14:41:00,40.0,26.0,-100.00,East,99,4.0,12.0,56,0.00,,,-99.99,,2013-03-03 21:41:00,
2013-03-03 14:52:00,40.0,27.0,-100.00,East,99,9.0,17.0,60,0.00,,,-99.99,,2013-03-03 21:52:00,
2013-03-03 15:01:00,40.0,27.0,-100.00,East,99,6.0,12.0,59,0.00,,,-99.99,,2013-03-03 22:01:00,
2013-03-03 15:11:00,40.0,27.0,-100.00,East,99,5.0,9.0,60,0.00,,,-99.99,,2013-03-03 22:11:00,
2013-03-03 15:22:00,41.0,27.0,-100.00,East,99,6.0,12.0,57,0.00,,,-99.99,,2013-03-03 22:22:00,
2013-03-03 15:32:00,41.0,27.0,-100.00,East,99,7.0,16.0,58,0.00,,,-99.99,,2013-03-03 22:32:00,
2013-03-03 15:42:00,40.0,27.0,-100.00,East,99,11.0,24.0,60,0.00,,,-99.99,,2013-03-03 22:42:00,
2013-03-03 15:52:00,42.0,27.0,-100.00,East,99,6.0,12.0,55,0.00,,,-99.99,,2013-03-03 22:52:00,
2013-03-03 16:01:00,42.0,26.0,-100.00,East,99,7.0,14.0,53,0.00,,,-99.99,,2013-03-03 23:01:00,
2013-03-03 16:11:00,41.0,26.0,-100.00,East,99,9.0,19.0,53,0.00,,,-99.99,,2013-03-03 23:11:00,
2013-03-03 16:21:00,40.0,27.0,-100.00,North,352,16.0,24.0,60,0.00,,,-99.99,,2013-03-03 23:21:00,
2013-03-03 16:32:00,39.0,27.0,-100.00,West,270,18.0,26.0,61,0.00,,,-99.99,,2013-03-03 23:32:00,
2013-03-03 16:41:00,38.0,26.0,-100.00,West,267,20.0,27.0,61,0.00,,,-99.99,,2013-03-03 23:41:00,
2013-03-03 16:52:00,37.0,26.0,-100.00,West,267,22.0,28.0,65,0.00,,,-99.99,,2013-03-03 23:52:00,
2013-03-03 17:01:00,37.0,26.0,-100.00,West,278,17.0,25.0,63,0.00,,,-99.99,,2013-03-04 00:01:00,
2013-03-03 17:11:00,37.0,26.0,-100.00,WNW,291,15.0,19.0,65,0.00,,,-99.99,,2013-03-04 00:11:00,
2013-03-03 17:21:00,37.0,26.0,-100.00,WNW,287,16.0,25.0,66,0.00,,,-99.99,,2013-03-04 00:21:00,
2013-03-03 17:32:00,36.0,27.0,-100.00,WNW,288,11.0,18.0,68,0.00,,,-99.99,,2013-03-04 00:32:00,
2013-03-03 17:42:00,36.0,26.0,-100.00,WNW,288,9.0,15.0,64,0.00,,,-99.99,,2013-03-04 00:42:00,
2013-03-03 17:52:00,37.0,25.0,-100.00,West,281,11.0,21.0,63,0.00,,,-99.99,,2013-03-04 00:52:00,
2013-03-03 18:01:00,36.0,26.0,-100.00,West,280,14.0,24.0,65,0.00,,,-99.99,,2013-03-04 01:01:00,
2013-03-03 18:11:00,36.0,26.0,-100.00,WNW,284,13.0,24.0,66,0.00,,,-99.99,,2013-03-04 01:11:00,
2013-03-03 18:21:00,35.0,26.0,-100.00,WNW,289,12.0,17.0,69,0.00,,,-99.99,,2013-03-04 01:21:00,
2013-03-03 18:32:00,36.0,26.0,-100.00,West,281,14.0,20.0,69,0.00,,,-99.99,,2013-03-04 01:32:00,
2013-03-03 18:42:00,35.0,27.0,-100.00,West,272,17.0,22.0,70,0.00,,,-99.99,,2013-03-04 01:42:00,
2013-03-03 18:51:00,36.0,26.0,-100.00,West,270,20.0,30.0,65,0.00,,,-99.99,,2013-03-04 01:51:00,
2013-03-03 19:01:00,37.0,25.0,-100.00,West,263,28.0,37.0,61,0.00,,,-99.99,,2013-03-04 02:01:00,
2013-03-03 19:11:00,38.0,25.0,-100.00,WSW,256,32.0,44.0,60,0.00,,,-99.99,,2013-03-04 02:11:00,
2013-03-03 19:22:00,37.0,26.0,-100.00,WSW,251,32.0,42.0,65,0.00,,,-99.99,,2013-03-04 02:22:00,
2013-03-03 19:32:00,37.0,25.0,-100.00,WSW,250,32.0,42.0,61,0.00,,,-99.99,,2013-03-04 02:32:00,
2013-03-03 19:42:00,37.0,24.0,-100.00,WSW,250,31.0,40.0,59,0.00,,,-99.99,,2013-03-04 02:42:00,
2013-03-03 19:52:00,37.0,24.0,-100.00,WSW,250,32.0,40.0,58,0.00,,,-99.99,,2013-03-04 02:52:00,
2013-03-03 20:01:00,37.0,24.0,-100.00,WSW,257,39.0,47.0,60,0.00,,,-99.99,,2013-03-04 03:01:00,
2013-03-03 20:11:00,37.0,24.0,-100.00,West,260,39.0,49.0,60,0.00,,,-99.99,,2013-03-04 03:11:00,
2013-03-03 20:21:00,37.0,24.0,-100.00,West,265,41.0,55.0,60,0.00,,,-99.99,,2013-03-04 03:21:00,
2013-03-03 20:32:00,37.0,23.0,-100.00,West,268,42.0,52.0,55,0.00,,,-99.99,,2013-03-04 03:32:00,
2013-03-03 20:42:00,37.0,23.0,-100.00,West,267,42.0,52.0,57,0.00,,,-99.99,,2013-03-04 03:42:00,
2013-03-03 20:52:00,37.0,23.0,-100.00,West,265,42.0,51.0,56,0.00,,,-99.99,,2013-03-04 03:52:00,
2013-03-03 21:01:00,37.0,23.0,-100.00,West,265,41.0,56.0,57,0.00,,,-99.99,,2013-03-04 04:01:00,
2013-03-03 21:11:00,36.0,23.0,-100.00,West,267,41.0,52.0,59,0.00,,,-99.99,,2013-03-04 04:11:00,
2013-03-03 21:22:00,37.0,23.0,-100.00,West,265,42.0,52.0,57,0.00,,,-99.99,,2013-03-04 04:22:00,
2013-03-03 21:32:00,36.0,23.0,-100.00,West,265,42.0,55.0,57,0.00,,,-99.99,,2013-03-04 04:32:00,
2013-03-03 21:42:00,37.0,22.0,-100.00,West,267,40.0,50.0,54,0.00,,,-99.99,,2013-03-04 04:42:00,
2013-03-03 21:51:00,36.0,22.0,-100.00,West,270,37.0,48.0,54,0.00,,,-99.99,,2013-03-04 04:51:00,
2013-03-03 22:01:00,36.0,21.0,-100.00,West,270,39.0,50.0,53,0.00,,,-99.99,,2013-03-04 05:01:00,
2013-03-03 22:11:00,36.0,22.0,-100.00,West,270,39.0,50.0,55,0.00,,,-99.99,,2013-03-04 05:11:00,
2013-03-03 22:22:00,36.0,21.0,-100.00,West,272,42.0,53.0,54,0.00,,,-99.99,,2013-03-04 05:22:00,
2013-03-03 22:31:00,36.0,20.0,-100.00,West,270,42.0,50.0,53,0.00,,,-99.99,,2013-03-04 05:31:00,
2013-03-03 22:42:00,36.0,20.0,-100.00,West,265,41.0,51.0,53,0.00,,,-99.99,,2013-03-04 05:42:00,
2013-03-03 22:52:00,36.0,21.0,-100.00,West,263,41.0,52.0,55,0.00,,,-99.99,,2013-03-04 05:52:00,
2013-03-03 23:01:00,35.0,20.0,-100.00,West,264,39.0,45.0,54,0.00,,,-99.99,,2013-03-04 06:01:00,
2013-03-03 23:11:00,35.0,20.0,-100.00,West,263,37.0,48.0,54,0.00,,,-99.99,,2013-03-04 06:11:00,
2013-03-03 23:21:00,35.0,19.0,-100.00,West,271,33.0,44.0,51,0.00,,,-99.99,,2013-03-04 06:21:00,
2013-03-03 23:32:00,35.0,20.0,-100.00,West,275,30.0,40.0,52,0.00,,,-99.99,,2013-03-04 06:32:00,
2013-03-03 23:42:00,35.0,19.0,-100.00,West,272,30.0,40.0,52,0.00,,,-99.99,,2013-03-04 06:42:00,
2013-03-03 23:51:00,35.0,18.0,-100.00,West,277,30.0,38.0,50,0.00,,,-99.99,,2013-03-04 06:51:00,